Regional Weather Roundup
Issued by NWS Albany, NY

Home | Current Version | Previous Version | Text Only | Print | Product List | Glossary On
Versions: 1 2 3 4 5 6 7 8 9 10 11 12 13 14 15 16 17 18 19 20 21 22 23 24 25 26 27 28 29 30 31 32 33 34 35 36 37 38 39 40 41 42 43 44 45 46 47 48 49 50
605
ASUS41 KALY 281210
RWRALY

NEW YORK STATE HOURLY WEATHER ROUNDUP
NATIONAL WEATHER SERVICE ALBANY NY
800 AM EDT SUN MAY 28 2017

NOTE: "FAIR" INDICATES FEW OR NO CLOUDS BELOW 12,000 FEET WITH NO
SIGNIFICANT WEATHER AND/OR NO OBSTRUCTIONS TO VISIBILITY.

NYZ032-033-038>043-046>054-057>066-NYZ062>081-082-084-281300-
EAST


CITY           SKY/WX    TMP DP  RH WIND       PRES   REMARKS
ALBANY         CLOUDY    64  56  75 E3        29.93F
GLENS FALLS    NOT AVBL
POUGHKEEPSIE   CLOUDY    62  57  83 S3        29.93R
NEWBURGH       PTSUNNY   63  59  88 VRB6      29.95R
MONTGOMERY     CLOUDY    63  59  87 CALM      29.93R
WHITE PLAINS     N/A     59  56  89 E5        29.95R FOG
ISLIP          MOSUNNY   62  57  83 S7        29.95S
NEW YORK CITY  CLOUDY    60  57  89 E6        29.94R FOG
CENTRAL PARK   CLOUDY    61  57  87 VRB5      29.97R FOG
$$

NYZ005>009-017-018-044>046-055-056-281300-
CENTRAL


CITY           SKY/WX    TMP DP  RH WIND       PRES   REMARKS
FULTON         CLOUDY    57  55  93 CALM      29.91F
SYRACUSE       CLOUDY    57  56  96 E3        29.90F
ROME           SUNNY     55  54  96 SE3       29.94S
ELMIRA         CLOUDY    60  54  80 CALM      29.89S
BINGHAMTON     PTSUNNY   57  55  93 E6        29.91F
MONTICELLO     CLOUDY    57  55  94 CALM      29.96S
$$

NYZ026>034-041>043-087-281300-
NORTH


CITY           SKY/WX    TMP DP  RH WIND       PRES   REMARKS
WATERTOWN      SUNNY     58  55  90 CALM      29.90F
FORT DRUM      NOT AVBL
OGDENSBURG     FAIR      59  54  84 S3        29.92S
MASSENA        SUNNY     60  54  80 SW7       29.93S
SARANAC LAKE   CLOUDY    49  49 100 SW3       29.95S
PLATTSBURGH    SUNNY     57  52  83 SE8       29.93S
$$

NYZ001>004-010>016-019>021-085-281300-
WEST


CITY           SKY/WX    TMP DP  RH WIND       PRES   REMARKS
NIAGARA FALLS  MOSUNNY   60  54  80 NE3       29.84F
BUFFALO        CLOUDY    57  52  83 E5        29.84F
DUNKIRK        MOSUNNY   59  56  89 NE5       29.82F
JAMESTOWN      CLOUDY    55  52  88 SE5       29.85F
WELLSVILLE     CLOUDY    57  54  89 S7        29.90F FOG
ROCHESTER      CLOUDY    57  54  89 E5        29.87F
PENN YAN       CLOUDY    57  54  89 CALM      29.90S FOG
$$

             KEY
       WCI = WIND CHILL INDEX
       VSB = VISIBILITY
       HX  = HEAT INDEX
$$




USA.gov is the U.S. government's official web portal to all federal, state and local government web resources and services.